Wetbulb
69.10 68.56 68.65 68.02 67.77 67.26 65.73 65.64 65.13 64.45 63.69 62.92 61.28 60.04 58.43 57.49 57.05 57.40 57.11 56.36 56.90 55.96
68.56 67.83 66.38 66.98 65.93 64.33 63.96 63.73 62.75 61.92 60.22 59.79 59.39 59.01 58.76 58.82 59.21 58.91 58.67 58.17 57.51 56.46
65.17 64.77 64.98 64.55 63.67 61.97 59.98 59.20 58.47 57.53 56.86 56.78 57.56 58.13 57.12 56.44 56.21 54.66 54.19 54.66 55.32 54.50
63.95 63.56 63.56 62.71 62.38 62.21 61.84 61.23 59.23 58.50 57.90 57.41 56.95 56.31 55.11 54.56 55.17 55.72 54.22 53.81 53.52 55.35
62.88 62.51 61.33 61.67 61.39 61.38 60.14 59.30 59.49 59.92 58.35 58.84 58.81 58.01 57.45 56.24 55.42 54.13 52.06 50.81 49.38 50.59
60.97 60.09 59.91 60.26 59.82 58.57 59.10 57.74 55.86 54.92 53.68 53.28 56.71 56.58 57.56 57.01 54.98 52.80 50.61 49.95 48.75 48.49
58.24 58.49 58.30 58.46 57.88 56.12 55.98 54.00 52.97 53.17 51.12 50.46 51.00 53.94 54.34 54.89 52.52 52.01 51.59 50.72 49.70 49.13
60.23 59.39 57.39 56.84 55.66 53.77 52.72 52.90 52.18 51.34 50.73 49.72 50.80 52.13 52.27 52.10 51.29 51.72 51.86 49.16 47.96 47.26
57.48 56.63 55.96 55.38 54.96 54.07 52.78 51.72 51.64 51.07 49.46 46.63 48.65 48.65 51.83 51.90 49.68 49.58 48.69 47.52 45.52 45.70
55.92 55.57 55.35 55.26 54.17 52.18 51.19 50.75 49.06 48.13 46.11 43.35 44.11 46.70 48.02 51.10 48.73 48.93 47.39 45.98 45.05 45.64
54.19 55.10 55.50 55.24 54.77 54.02 51.54 48.92 49.23 48.19 48.93 44.16 44.92 46.20 46.11 50.34 47.10 47.47 48.27 46.92 45.81 43.68
56.51 55.41 55.55 55.80 55.61 53.83 52.40 51.79 49.29 48.28 47.62 45.23 42.96 44.91 45.15 49.18 47.68 47.42 45.75 45.93 46.12 44.60
57.77 57.67 56.56 55.18 54.64 53.11 52.65 50.86 51.16 48.45 47.25 49.10 44.06 44.39 44.46 47.28 51.16 45.56 45.08 43.33 42.41 46.90
57.60 56.39 55.45 54.42 52.74 51.96 50.16 50.05 49.07 49.09 48.85 48.90 45.85 43.73 44.15 44.80 43.79 45.85 46.16 46.53 44.72 45.11
MSLP
1014.03 1014.33 1014.54 1014.59 1014.63 1014.90 1015.23 1015.48 1015.58 1015.64 1015.72 1015.94 1016.17 1016.34 1016.50 1016.64 1016.82 1017.09 1017.26 1017.32 1017.44 1017.47
1015.07 1015.19 1015.36 1015.40 1015.44 1015.61 1015.88 1016.13 1016.33 1016.36 1016.58 1016.66 1016.87 1017.05 1017.09 1017.19 1017.46 1017.66 1017.82 1017.93 1017.85 1017.95
1016.04 1016.07 1016.19 1016.31 1016.47 1016.57 1016.76 1016.90 1017.15 1017.28 1017.49 1017.65 1017.70 1017.58 1017.76 1018.09 1018.21 1018.25 1018.50 1018.51 1018.42 1018.49
1016.87 1016.91 1016.86 1016.96 1017.22 1017.26 1017.42 1017.53 1017.64 1017.88 1018.08 1018.22 1018.29 1018.32 1018.41 1018.60 1018.77 1018.91 1019.11 1019.08 1019.07 1019.01
1017.13 1017.28 1017.52 1017.74 1017.99 1017.80 1017.98 1018.01 1018.05 1018.37 1018.60 1018.76 1018.80 1018.84 1018.94 1019.15 1019.30 1019.40 1019.76 1019.93 1019.78 1019.80
1017.87 1017.83 1017.99 1018.07 1018.52 1018.60 1018.61 1018.69 1018.77 1019.03 1019.35 1019.49 1019.48 1019.52 1019.62 1019.64 1019.73 1019.98 1020.27 1020.40 1020.51 1020.53
1018.54 1018.31 1018.65 1018.72 1019.06 1019.28 1019.35 1019.50 1019.69 1020.00 1020.16 1020.23 1020.10 1020.06 1020.11 1020.21 1020.41 1020.57 1020.84 1020.95 1020.88 1020.88
1018.93 1019.09 1019.19 1019.37 1019.82 1020.00 1020.05 1020.31 1020.50 1020.72 1020.97 1020.97 1020.83 1020.83 1020.72 1020.77 1021.01 1021.26 1021.45 1021.44 1021.40 1021.29
1019.44 1019.64 1019.92 1020.22 1020.51 1020.76 1021.13 1021.31 1021.53 1021.77 1021.76 1021.81 1021.84 1021.58 1021.09 1021.18 1021.59 1021.64 1021.72 1021.85 1021.78 1021.53
1019.87 1020.08 1020.32 1020.53 1020.89 1021.35 1021.69 1021.92 1022.08 1022.40 1022.60 1022.42 1022.26 1022.21 1021.91 1021.70 1021.98 1022.20 1022.26 1022.16 1022.11 1021.99
1020.61 1020.62 1020.79 1021.09 1021.44 1021.82 1022.15 1022.28 1022.66 1022.62 1023.10 1022.85 1022.90 1022.70 1022.35 1022.13 1022.50 1022.57 1022.69 1022.53 1022.45 1022.32
1020.67 1021.03 1021.27 1021.56 1021.77 1021.99 1022.32 1022.59 1022.81 1023.05 1023.18 1023.27 1023.32 1023.00 1022.48 1022.35 1022.84 1022.90 1022.88 1022.79 1022.47 1022.46
1020.88 1021.09 1021.28 1021.37 1021.71 1021.98 1022.17 1022.51 1022.81 1023.17 1023.22 1023.25 1023.24 1022.94 1022.68 1022.54 1022.90 1023.25 1023.07 1023.02 1022.94 1022.55
1021.15 1021.37 1021.69 1021.97 1022.13 1022.30 1022.43 1022.67 1023.06 1023.34 1023.40 1023.43 1023.16 1023.09 1023.01 1022.93 1023.08 1023.28 1023.39 1023.12 1023.05 1022.95
Wind_Speed
11 7 7 8 8 8 8 8 10 10 10 11 10 9 9 8 8 8 7 8 6 3
10 10 8 10 10 8 9 8 10 11 10 10 9 8 7 6 7 7 5 5 5 4
9 9 8 9 11 12 12 12 11 10 8 7 7 7 8 7 6 7 4 4 5 5
9 8 9 10 10 9 9 8 7 7 7 7 6 6 6 6 6 9 10 9 9 9
9 9 10 9 7 8 8 6 6 6 6 5 5 5 8 9 6 9 10 8 8 8
9 9 9 10 9 7 8 11 12 12 11 10 7 7 7 6 9 9 7 7 7 7
6 7 6 7 7 8 9 10 10 10 10 9 8 8 8 7 6 7 7 7 8 7
8 9 8 8 9 9 9 9 10 11 10 9 10 6 7 9 10 7 6 6 6 7
10 11 9 9 9 10 10 9 9 9 8 8 7 12 12 9 6 7 6 5 5 6
9 9 8 9 10 9 6 6 7 7 7 8 7 11 10 8 6 6 6 6 5 5
6 8 7 7 7 6 5 6 4 6 5 6 5 8 7 5 4 6 5 4 4 5
7 6 6 4 5 5 5 5 4 4 5 5 3 5 8 7 4 4 4 3 3 5
6 5 5 6 6 4 5 5 5 4 4 4 2 6 8 8 4 3 3 1 2 2
5 6 6 5 4 3 4 5 4 4 2 0 2 5 9 7 5 3 3 4 3 3
Wind_Direction
50 58 60 64 69 73 63 59 64 62 61 65 70 73 74 70 71 67 65 67 58 51
56 58 57 64 68 68 75 76 71 72 73 68 67 68 68 68 70 62 51 47 50 46
52 54 59 69 74 76 77 75 76 69 64 65 62 61 64 62 53 67 46 46 49 38
62 56 68 84 87 85 84 74 77 78 75 73 73 74 79 79 66 62 49 38 38 39
73 68 69 61 51 76 82 78 81 83 83 80 78 67 74 83 63 76 63 54 43 36
75 74 76 81 75 66 60 58 58 61 56 41 35 48 81 88 92 84 76 65 50 26
86 89 80 69 67 67 71 69 64 62 57 46 44 47 56 64 71 81 72 62 50 29
90 82 64 59 65 61 61 61 60 62 49 40 49 39 56 60 63 81 65 63 60 38
86 83 78 73 71 71 62 58 63 63 61 47 45 28 56 76 78 84 83 70 53 48
101 96 93 89 86 82 78 78 78 73 50 47 38 27 32 44 73 73 73 68 50 45
82 95 90 92 104 110 105 102 98 81 78 56 26 11 25 57 62 80 75 78 69 56
106 101 98 101 114 118 117 97 85 103 95 84 12 5 35 123 110 96 89 61 66 66
130 131 136 137 133 133 126 130 121 127 113 124 82 20 60 71 110 134 142 53 352 29
116 112 101 88 94 142 135 141 154 151 183 119 43 27 35 79 97 90 205 244 285 251